W0VIP Weather Reports


Display with metric or nautical units.
time (UTC)temp
F
wind
direction
speed
MPH
gust
MPH
rain 1hr
in
rain 24hr
in
rain mn
in
humidity
%
barometer
mb
20260510164041 69 266 1.0 5.0 0.00 0.00 0.00 52 1021.8
20260510163038 68 33 2.0 8.0 0.00 0.00 0.00 53 1021.6
20260510162034 67 61 3.0 7.0 0.00 0.00 0.00 50 1021.6
20260510161100 66 351 3.0 6.0 0.00 0.00 0.00 57 1021.5
20260510160027 65 359 2.0 6.0 0.00 0.00 0.00 56 1021.3
20260510155056 64 27 1.0 6.0 0.00 0.00 0.00 57 1021.3
20260510154026 64 342 2.0 6.0 0.00 0.00 0.00 62 1021.0
20260510153054 64 356 1.0 7.0 0.00 0.00 0.00 62 1020.6
20260510152055 64 342 2.0 9.0 0.00 0.00 0.00 64 1020.6
20260510151053 64 337 2.0 7.0 0.00 0.00 0.00 69 1020.4
20260510150034 63 66 2.0 5.0 0.00 0.00 0.00 72 1020.5
20260510145059 62 46 1.0 6.0 0.00 0.00 0.00 72 1020.6
20260510144044 62 5 1.0 8.0 0.00 0.00 0.00 72 1020.6
20260510143052 62 31 2.0 7.0 0.00 0.00 0.00 73 1020.9
20260510142039 62 46 1.0 4.0 0.00 0.00 0.00 74 1021.0
20260510141040 62 343 0.0 1.0 0.00 0.00 0.00 75 1020.9
20260510140056 62 9 0.0 5.0 0.00 0.01 0.00 74 1020.6
20260510135037 62 345 1.0 6.0 0.00 0.01 0.00 74 1020.5
20260510134041 62 47 1.0 5.0 0.00 0.01 0.00 74 1020.3
20260510133056 62 19 1.0 4.0 0.00 0.01 0.00 75 1020.3
20260510132048 62 350 0.0 6.0 0.00 0.01 0.00 76 1020.1
20260510131033 62 72 1.0 6.0 0.00 0.01 0.00 76 1020.1
20260510130049 61 22 2.0 6.0 0.00 0.01 0.00 78 1019.7
20260510125053 61 123 1.0 5.0 0.00 0.01 0.00 79 1019.5
20260510124035 61 65 0.0 2.0 0.00 0.01 0.00 80 1019.2
20260510123025 60 59 0.0 4.0 0.00 0.01 0.00 81 1019.2
20260510122034 60 357 0.0 4.0 0.00 0.01 0.00 81 1019.1
20260510121049 60 37 0.0 1.0 0.00 0.01 0.00 81 1018.6
20260510120030 59 164 0.0 1.0 0.00 0.01 0.00 82 1018.3
20260510115030 59 165 0.0 1.0 0.00 0.01 0.00 82 1018.4
20260510114027 59 51 0.0 4.0 0.00 0.01 0.00 83 1018.0
20260510113056 58 66 0.0 5.0 0.00 0.01 0.00 84 1017.9
20260510112119 58 343 0.0 1.0 0.00 0.01 0.00 86 1017.7
20260510111119 58 343 0.0 0.0 0.00 0.01 0.00 85 1017.6
20260510110043 58 343 0.0 1.0 0.00 0.01 0.00 85 1017.3
20260510105049 58 343 0.0 1.0 0.00 0.01 0.00 86 1017.1
20260510104050 58 343 0.0 0.0 0.00 0.01 0.00 85 1017.0
20260510103053 58 343 0.0 0.0 0.00 0.01 0.00 84 1016.8
20260510102039 59 343 0.0 0.0 0.00 0.01 0.00 84 1016.9
20260510101028 59 343 0.0 1.0 0.00 0.01 0.00 84 1017.0
20260510100041 59 343 0.0 2.0 0.00 0.01 0.00 83 1017.0
20260510095032 60 343 0.0 0.0 0.00 0.01 0.00 81 1016.9
20260510094023 60 343 0.0 0.0 0.00 0.01 0.00 81 1016.7
20260510093030 60 343 0.0 0.0 0.00 0.01 0.00 79 1016.5
20260510092105 60 343 0.0 1.0 0.00 0.01 0.00 78 1016.3
20260510091110 60 343 0.0 1.0 0.00 0.01 0.00 78 1016.1
20260510090048 61 343 0.0 0.0 0.00 0.01 0.00 77 1016.0
20260510085053 61 343 0.0 0.0 0.00 0.01 0.00 76 1015.9
20260510084031 61 343 0.0 0.0 0.00 0.01 0.00 74 1015.8
20260510083033 62 343 0.0 1.0 0.00 0.01 0.00 75 1015.8
20260510082029 62 343 0.0 0.0 0.00 0.01 0.00 73 1015.5
20260510081037 63 343 0.0 0.0 0.00 0.01 0.00 72 1015.6
20260510080056 63 343 0.0 0.0 0.00 0.01 0.00 71 1015.6
20260510075026 64 343 0.0 0.0 0.00 0.01 0.00 71 1015.8
20260510074049 64 343 0.0 1.0 0.00 0.01 0.00 70 1015.7
20260510073045 65 343 0.0 0.0 0.00 0.01 0.00 70 1015.7
20260510072048 65 343 0.0 2.0 0.00 0.01 0.00 68 1015.8
20260510071030 63 343 1.0 2.0 0.00 0.01 0.00 70 1015.6
20260510070031 62 134 1.0 2.0 0.00 0.01 0.00 74 1015.1
20260510065052 62 5 2.0 3.0 0.00 0.01 0.00 76 1014.6
20260510064027 62 141 2.0 5.0 0.00 0.01 0.00 76 1014.1
20260510063115 61 92 1.0 4.0 0.00 0.01 0.00 79 1014.9
20260510062034 61 95 0.0 4.0 0.00 0.01 0.00 82 1015.0
20260510061100 61 117 0.0 4.0 0.00 0.01 0.00 83 1015.2
20260510060044 61 140 2.0 4.0 0.00 0.01 0.00 84 1015.2
20260510055045 61 209 1.0 2.0 0.00 0.01 0.00 83 1015.4
20260510054047 61 209 0.0 1.0 0.00 0.01 0.00 82 1015.6
20260510053041 61 209 0.0 2.0 0.00 0.01 0.00 82 1015.6
20260510052032 61 209 0.0 0.0 0.00 0.01 0.00 83 1015.7
20260510051056 61 209 0.0 0.0 0.00 0.01 0.00 83 1015.8
20260510050040 61 209 0.0 1.0 0.00 0.01 0.01 83 1015.7
20260510045033 61 209 0.0 0.0 0.00 0.01 0.01 83 1015.5
20260510044041 61 209 0.0 2.0 0.00 0.01 0.01 83 1015.4
20260510043026 61 209 0.0 1.0 0.00 0.01 0.01 83 1015.3
20260510042038 61 209 0.0 1.0 0.00 0.01 0.01 83 1015.4
20260510041048 61 209 0.0 0.0 0.00 0.01 0.01 82 1015.5
20260510040041 61 209 0.0 1.0 0.00 0.01 0.01 82 1015.5
20260510035031 61 209 0.0 1.0 0.00 0.01 0.01 81 1015.3
20260510034040 61 209 0.0 0.0 0.00 0.01 0.01 80 1015.2
20260510033058 62 209 0.0 0.0 0.00 0.01 0.01 79 1015.0
20260510032034 62 209 0.0 0.0 0.00 0.01 0.01 79 1014.7
20260510031042 63 209 0.0 0.0 0.00 0.01 0.01 78 1014.6
20260510030046 63 209 0.0 0.0 0.00 0.01 0.01 77 1014.6
20260510025048 64 209 0.0 0.0 0.00 0.01 0.01 77 1014.4
20260510024036 64 209 0.0 0.0 0.00 0.01 0.01 75 1014.3
20260510023034 65 209 0.0 0.0 0.00 0.01 0.01 74 1014.2
20260510022033 65 209 0.0 0.0 0.00 0.01 0.01 72 1013.8
20260510021036 66 209 0.0 0.0 0.00 0.01 0.01 70 1013.6
20260510020052 66 209 0.0 0.0 0.00 0.01 0.01 68 1013.2
20260510015047 67 209 0.0 0.0 0.00 0.01 0.01 65 1013.0
20260510014042 68 209 0.0 0.0 0.00 0.01 0.01 62 1012.9
20260510013031 69 209 0.0 0.0 0.00 0.01 0.01 62 1012.6
20260510012030 70 209 0.0 0.0 0.00 0.01 0.01 59 1012.6
20260510011053 71 209 0.0 0.0 0.00 0.01 0.01 59 1012.5
20260510010042 72 209 0.0 0.0 0.00 0.03 0.01 55 1012.4
20260510005039 73 209 0.0 0.0 0.00 0.03 0.01 54 1012.2
20260510004038 74 209 0.0 0.0 0.00 0.03 0.01 51 1012.2
20260510003044 76 209 0.0 0.0 0.00 0.03 0.01 48 1012.2
20260510002046 77 209 0.0 2.0 0.00 0.03 0.01 46 1012.1
20260510001038 77 202 0.0 2.0 0.00 0.03 0.01 43 1012.2
20260510000050 78 202 0.0 4.0 0.00 0.04 0.01 40 1012.1
20260509235053 78 180 0.0 2.0 0.00 0.04 0.01 39 1012.2
20260509234046 79 290 0.0 4.0 0.00 0.04 0.01 37 1012.2
20260509233046 79 247 1.0 4.0 0.00 0.04 0.01 35 1012.3
20260509232054 79 234 0.0 2.0 0.00 0.04 0.01 34 1012.3
20260509231050 79 312 0.0 1.0 0.00 0.04 0.01 34 1012.3
20260509230031 80 312 1.0 2.0 0.00 0.05 0.01 33 1012.4
20260509225052 80 316 1.0 5.0 0.00 0.05 0.01 33 1012.2
20260509224036 81 233 2.0 5.0 0.00 0.05 0.01 35 1012.2
20260509223029 81 244 2.0 5.0 0.00 0.05 0.01 34 1012.3
20260509222048 80 199 1.0 2.0 0.00 0.05 0.01 32 1012.3
20260509221055 80 197 0.0 5.0 0.00 0.05 0.01 31 1012.4
20260509220044 81 144 2.0 6.0 0.00 0.05 0.01 30 1012.5
20260509215053 81 207 2.0 6.0 0.00 0.05 0.01 31 1012.4
20260509214054 81 234 2.0 7.0 0.00 0.05 0.01 35 1012.4
20260509213047 81 321 2.0 6.0 0.00 0.05 0.01 32 1012.4
20260509212031 81 223 1.0 7.0 0.00 0.05 0.01 36 1012.5
20260509211049 81 238 0.0 7.0 0.00 0.05 0.01 29 1012.6
20260509210050 82 259 2.0 6.0 0.00 0.05 0.01 32 1012.8
20260509205033 82 337 2.0 5.0 0.00 0.05 0.01 31 1012.8
20260509204030 82 244 2.0 6.0 0.00 0.05 0.01 32 1012.9
20260509203052 81 299 2.0 8.0 0.00 0.05 0.01 33 1013.0
20260509202022 82 115 2.0 5.0 0.00 0.05 0.01 36 1013.0
20260509201039 82 242 1.0 7.0 0.00 0.05 0.01 35 1013.2
20260509200120 82 283 1.0 6.0 0.00 0.05 0.01 36 1013.1
20260509195050 81 138 1.0 7.0 0.00 0.05 0.01 40 1013.2
20260509194043 82 198 1.0 5.0 0.00 0.05 0.01 38 1013.2
20260509193040 81 273 3.0 10.0 0.00 0.05 0.01 35 1013.2
20260509192107 81 265 2.0 7.0 0.00 0.05 0.01 37 1013.5
20260509191056 80 316 1.0 8.0 0.00 0.05 0.01 40 1013.5
20260509190052 81 212 3.0 6.0 0.00 0.05 0.01 40 1013.7
20260509185052 80 238 2.0 8.0 0.00 0.05 0.01 34 1013.6
20260509184029 80 351 0.0 7.0 0.00 0.05 0.01 39 1013.7
20260509183050 80 231 4.0 7.0 0.00 0.05 0.01 37 1013.7
20260509182048 81 232 2.0 5.0 0.00 0.05 0.01 36 1013.8
20260509181032 80 234 1.0 6.0 0.00 0.05 0.01 33 1013.8
20260509180027 80 299 1.0 6.0 0.00 0.05 0.01 41 1013.8
20260509175022 79 329 1.0 5.0 0.00 0.05 0.01 40 1013.9
20260509174103 79 161 3.0 9.0 0.00 0.05 0.01 40 1014.0
20260509173051 79 251 2.0 7.0 0.00 0.05 0.01 39 1014.0
20260509172051 79 327 2.0 5.0 0.00 0.05 0.01 46 1014.1
20260509171037 78 280 2.0 6.0 0.00 0.05 0.01 36 1014.0
20260509170052 79 296 2.0 5.0 0.00 0.05 0.01 39 1014.0
20260509165032 78 299 1.0 4.0 0.00 0.05 0.01 50 1014.0